Other Public Products
Issued by NWS Grand Forks, ND

Home | Current Version | Previous Version | Graphics & Text | Print | Product List | Glossary On
Versions: 1 2 3 4 5 6 7 8 9 10 11 12 13 14 15 16 17 18 19 20 21 22 23 24 25 26 27 28 29 30 31 32 33 34 35 36 37 38 39 40 41 42 43 44 45 46 47 48 49 50
000
FPUS83 KFGF 172210
OPUFGF
PRAIRIE TO PINES WEATHER ROUNDUP
NATIONAL WEATHER SERVICE EASTERN NORTH DAKOTA/GRAND FORKS ND
500 PM CDT THU APR 17 2014

 **SATELLITE DATA USED TO AUGMENT SKY COVER AT AUTOMATED STATIONS**
 *****  WEATHER ACROSS EASTERN NORTH DAKOTA  *****

CITY           SKY/WX    TMP DP  RH WIND       PRES   REMARKS
GRAND FORKS    MOSUNNY   42   8  24 E9        30.30F
GRAND FORKS AF MOSUNNY   41  10  27 N8        30.30F
GRAND CITY NWS   N/A     41 N/A N/A N5          N/A
BUXTON         NOT AVBL
DEVILS LAKE    SUNNY     39  10  30 S9        30.25F
FARGO          SUNNY     44  13  28 W8        30.28F
WAHPETON ARPT  CLEAR     43  10  26 NW3       30.28F
$$

 *****  WEATHER ACROSS CENTRAL AND WESTERN NORTH DAKOTA  *****

CITY           SKY/WX    TMP DP  RH WIND       PRES   REMARKS
JAMESTOWN      SUNNY     45  13  27 SE7G17    30.22F
BISMARCK       CLOUDY    46  19  34 S18       30.17F
MINOT          CLOUDY    42  16  34 SE13      30.16F
MINOT AFB      CLOUDY    42  19  39 SE12      30.16F
GARRISON         N/A     43  20  39 SE14      30.14F
WILLISTON      CLOUDY    44  26  49 SE15G26   30.06F
DICKINSON      PTSUNNY   39  26  59 SE20G28   30.06F
HETTINGER      MOSUNNY   46  26  45 SE18G24   30.06F
$$

 *****  OTHER OBSERVATIONS NORTHEAST NORTH DAKOTA  *****

CITY           SKY/WX    TMP DP  RH WIND       PRES   REMARKS
WALHALLA         N/A     37   7  28 E7        30.30F
LANGDON        FAIR      39   9  28 E6        30.25F
CAVALIER       FAIR      39   9  28 NE8       30.31S
GRAFTON        FAIR      37   9  30 NE3       30.31S
CANDO          FAIR      39   9  28 SE7       30.25F
FORT TOTTEN      N/A     42   8  24 SE7       29.95
ROLLA          FAIR      37  16  41 S8        30.23F
RUGBY          MOCLDY    39  16  38 SE9       30.22S
 ***** THE ABOVE OBSERVATIONS ARE NON NWS ARE NOT QUALITY
        CONTROLLED AND MAY MIS-REPORT RAIN FOR SNOW...
$$

 *****  OTHER OBSERVATIONS SOUTHEAST NORTH DAKOTA *****

CITY           SKY/WX    TMP DP  RH WIND       PRES   REMARKS
COOPERSTOWN    FAIR      39  10  30 CALM      30.25F
VALLEY CITY    NOT AVBL
OAKES          FAIR      45  12  26 SE5       30.24F
GWINNER        CLEAR     46  14  27 SE5       30.27F
BUFFALO        NOT AVBL
WYNDMERE       NOT AVBL
 ***** THE ABOVE OBSERVATIONS ARE NON NWS ARE NOT QUALITY
       CONTROLLED AND MAY MIS-REPORT RAIN FOR SNOW...
$$

  *****  WEATHER ACROSS NORTHERN MINNESOTA  *****

CITY           SKY/WX    TMP DP  RH WIND       PRES   REMARKS
FLAG ISLAND    NOT AVBL
WARROAD        SUNNY     36  10  35 E8        30.30S
ROSEAU         SUNNY     39   7  26 E8        30.29S
HALLOCK        CLOUDY    39   9  28 NW7       30.30F
THF RVR FALLS  SUNNY     39   9  28 NW3       30.28S
HALSTAD          N/A     43  12  28 N3          N/A
FOSSTON        SUNNY     45  10  24 NW7       30.27S
BAUDETTE       SUNNY     38  10  31 N9        30.28S
WASKISH        SUNNY     41  14  33 W6        30.26S
CROOKSTON      SUNNY     43  14  31 NW8       30.30S
$$
  *****  WEATHER ACROSS CENTRAL AND WEST MINNESOTA  *****

CITY           SKY/WX    TMP DP  RH WIND       PRES   REMARKS
BEMIDJI        SUNNY     41   3  20 N8        30.24F
PARK RAPIDS    SUNNY     44   2  17 VRB3      30.22F
WADENA         SUNNY     43  14  31 NW6       30.23F
DETROIT LAKES  SUNNY     41  14  33 N9        30.26F
MOORHEAD       NOT AVBL
FERGUS FALLS   SUNNY     43  10  26 NW9       30.24S
ELBOW LAKE     FAIR      42  15  32 W6        30.27S
MORRIS MN      SUNNY     43  19  39 NE3       30.27F
STAPLES        SUNNY     45   9  23 NW6       30.23F
WHEATON        SUNNY     46  19  34 W5        30.29F
$$
  *****  WEATHER ELSEWHERE ACROSS MINNESOTA  *****

CITY           SKY/WX    TMP DP  RH WIND       PRES   REMARKS
DULUTH         CLOUDY    36  21  54 N9        30.23R
INTRNTL FALLS  PTSUNNY   37  16  42 E3        30.26S
ELY            CLOUDY    32  21  64 N7        30.24R
CLOQUET        CLOUDY    37  21  52 N7        30.25R
BRAINERD       SUNNY     48  19  31 N6        30.24F
HIBBING        CLOUDY    36  20  52 N8        30.25R
ALEXANDRIA     SUNNY     40  16  37 VRB3      30.26F
SAINT CLOUD    MOSUNNY   42  21  43 N5        30.27S
MINNEAPOLIS    MOSUNNY   42  27  55 NW8       30.29R
$$

  *****  WEATHER ACROSS SOUTH DAKOTA  *****

CITY           SKY/WX    TMP DP  RH WIND       PRES   REMARKS
SIOUX FALLS    PTSUNNY   45  21  38 CALM      30.27F
BROOKINGS      NOT AVBL
WATERTOWN      SUNNY     39  14  36 NW3       30.26F
HURON          MOSUNNY   45  18  34 E7        30.26F
SISSETON         N/A     42  20  41 S3        30.27F
ABERDEEN       PTSUNNY   45  19  35 S10       30.25F
MITCHELL       CLOUDY    48  16  27 SW6       30.27F
PIERRE         CLOUDY    45  23  42 SE17G23   30.18F
MOBRIDGE       CLOUDY    45  24  43 S16       30.15F
RAPID CITY     MOSUNNY   52  35  52 S21G28    30.00F
$$

  *****  SOME WEATHER IN NEARBY STATES *****

CITY           SKY/WX    TMP DP  RH WIND       PRES   REMARKS
GLASGOW MT     MOSUNNY   57  30  35 SE17G25   29.86F
GREAT FALLS MT PTSUNNY   57  30  35 SW17      29.75F
CHEYENNE WY    MOSUNNY   56  24  29 S8G17     30.01F
SCOTTSBLUFF NE SUNNY     58  38  47 SE16G28   30.02F
OMAHA NE       MOSUNNY   55  24  30 CALM      30.24F
DES MOINES IA  MOSUNNY   54  29  38 VRB3      30.25F
DAVENPORT IA   SUNNY     53  34  48 W8        30.23S
CHICAGO IL     CLOUDY    60  37  42 SW13      30.19R
EAU CLAIRE WI  CLOUDY    39  29  67 NW8       30.27R
LA CROSSE WI   CLOUDY    40  30  67 NW13      30.28R
$$

  *****  SOME NATIONAL WEATHER *****

CITY           SKY/WX    TMP DP  RH WIND       PRES   REMARKS
LA GUARDIA NY  PTSUNNY   46  27  47 E9        30.65F
RALEIGH NC     MOSUNNY   63  32  31 SE8G22    30.44F
ATLANTA GA     PTSUNNY   64  41  42 SE9       30.30F
NEW ORLEANS LA CLOUDY    65  59  81 E13G23    30.14S
OKLAHOMA CITY  LGT RAIN  57  40  52 N12       30.20S
ALBUQUERQUE NM PTSUNNY   68  23  18 N5        30.11F
SALT LAKE CITY PTSUNNY   69  26  20 SE20      29.93F
LOS ANGELES CA CLOUDY    68  53  58 W14       29.88F
BOISE ID       MOSUNNY   73  31  21 SE17      29.74F
SEATTLE WA     LGT RAIN  52  50  93 S10       29.80F
$$

*** WEATHER ACROSS MANITOBA...SASKATCHEWAN AND ONTARIO ***
                ***ONTARIO***

CITY           SKY/WX    TMP DP  RH WIND       PRES   REMARKS
GERALDTON      LGT SNOW  30  28  93 E9        30.28S VSB 1   WCI  22
THUNDER BAY    NOT AVBL
SIOUX LOOKOUT  PTSUNNY   36   9  32 NE8       30.28S
TORONTO        PTSUNNY   46  25  42 E14       30.40F
BIG TROUT LK   SUNNY     32   7  34 S6        30.31F
PICKLE LAKE    PTSUNNY   36   0  21 W2        30.28F
DRYDEN         SUNNY     36   5  27 NE6       30.26F
KENORA         SUNNY     36   1  23 VRB6      30.27F
$$
                *** MANITOBA***

CITY           SKY/WX    TMP DP  RH WIND       PRES   REMARKS
BRANDON        PTSUNNY   36  18  48 E15       30.28F
DAUPHIN          N/A     36  10  35 SE13G20   30.28F
ISLAND LAKE    MOSUNNY   34  12  40 NW5       30.33F
PILOT MOUND      N/A     39   9  28 SE7         N/A
THE PAS        SUNNY     32   7  34 SE8       30.30F WCI  25
THOMPSON       SUNNY     37  12  35 W8        30.28F
WINNIPEG       SUNNY     36   7  30 N7        30.34F
LYNN LAKE      SUNNY     37   1  22 NW5       30.24F
CHURCHILL      PTSUNNY   27  16  63 N14       30.20R WCI  15
GILLAM         MOSUNNY   34  16  47 NW9       30.27F
$$
                ***SASKATCHEWAN***

CITY           SKY/WX    TMP DP  RH WIND       PRES   REMARKS
ESTEVAN        PTSUNNY   41  23  48 SE18      30.11F
KINDERSLEY     PTSUNNY   48  34  57 SE20G30   29.81F
LLOYDMINSTER   LGT SNOW  28  25  86 E15G22    29.92F FOG     WCI  17
PRINCE ALBERT  PTSUNNY   36  19  51 E21G26    30.13F
REGINA         CLOUDY    41  23  48 SE28G37   30.06F
YORKTON        SUNNY     36  14  41 SE18G24   30.19F



USA.gov is the U.S. government's official web portal to all federal, state and local government web resources and services.